QPF
0.00 0.00 0.00 0.00 0.00 0.00 0.00 0.00 0.00 0.00 0.00 0.00 0.00 0.00 0.00 0.00 0.00 0.00 0.00 0.00 0.00 0.00 0.00 0.01 0.03 0.04 0.04 0.04 0.05 0.04 0.02 0.03 0.04 0.02 0.02 0.01 0.01 0.01 0.01 0.00 0.00 0.00 0.00 0.00
0.00 0.00 0.00 0.00 0.00 0.00 0.00 0.00 0.00 0.00 0.00 0.00 0.00 0.00 0.00 0.00 0.00 0.00 0.00 0.00 0.00 0.00 0.01 0.02 0.04 0.05 0.07 0.08 0.08 0.08 0.06 0.07 0.06 0.04 0.03 0.02 0.02 0.01 0.00 0.00 0.00 0.00 0.00 0.00
0.00 0.00 0.00 0.00 0.00 0.00 0.00 0.00 0.00 0.00 0.00 0.00 0.00 0.00 0.00 0.00 0.00 0.00 0.00 0.00 0.00 0.01 0.02 0.03 0.04 0.07 0.10 0.11 0.13 0.14 0.12 0.09 0.07 0.06 0.04 0.03 0.02 0.01 0.01 0.00 0.00 0.00 0.00 0.00
0.00 0.00 0.00 0.00 0.00 0.00 0.00 0.00 0.00 0.00 0.00 0.00 0.00 0.00 0.00 0.00 0.00 0.00 0.00 0.00 0.00 0.01 0.01 0.03 0.04 0.08 0.13 0.15 0.16 0.17 0.14 0.11 0.09 0.07 0.05 0.04 0.03 0.02 0.01 0.00 0.00 0.00 0.00 0.00
0.00 0.00 0.00 0.00 0.00 0.00 0.00 0.00 0.00 0.00 0.00 0.00 0.00 0.00 0.00 0.00 0.00 0.00 0.00 0.00 0.00 0.00 0.01 0.03 0.04 0.08 0.13 0.15 0.17 0.17 0.14 0.11 0.09 0.06 0.05 0.04 0.02 0.01 0.01 0.00 0.00 0.00 0.00 0.00
0.00 0.00 0.00 0.00 0.00 0.00 0.00 0.00 0.00 0.00 0.00 0.00 0.00 0.00 0.00 0.00 0.00 0.00 0.00 0.00 0.00 0.00 0.01 0.02 0.04 0.07 0.11 0.12 0.12 0.12 0.10 0.09 0.07 0.05 0.04 0.03 0.01 0.01 0.00 0.00 0.00 0.00 0.00 0.00
0.00 0.00 0.00 0.00 0.00 0.00 0.00 0.00 0.00 0.00 0.00 0.00 0.00 0.00 0.00 0.00 0.00 0.00 0.00 0.00 0.00 0.00 0.01 0.02 0.04 0.06 0.08 0.09 0.08 0.09 0.08 0.07 0.05 0.03 0.03 0.02 0.01 0.00 0.00 0.00 0.00 0.00 0.00 0.00
0.00 0.00 0.00 0.00 0.00 0.00 0.00 0.00 0.00 0.00 0.00 0.00 0.00 0.00 0.00 0.00 0.00 0.00 0.00 0.00 0.00 0.00 0.01 0.02 0.04 0.05 0.05 0.06 0.07 0.07 0.06 0.04 0.03 0.02 0.01 0.01 0.00 0.00 0.00 0.00 0.00 0.00 0.00 0.00
0.00 0.00 0.00 0.00 0.00 0.00 0.00 0.00 0.00 0.00 0.00 0.00 0.00 0.00 0.00 0.00 0.00 0.00 0.00 0.00 0.00 0.00 0.00 0.01 0.03 0.03 0.04 0.05 0.06 0.05 0.04 0.03 0.02 0.01 0.00 0.00 0.00 0.00 0.00 0.00 0.00 0.00 0.00 0.00
0.00 0.00 0.00 0.00 0.00 0.00 0.00 0.00 0.00 0.00 0.00 0.00 0.00 0.00 0.00 0.00 0.00 0.00 0.00 0.00 0.00 0.00 0.01 0.01 0.03 0.03 0.03 0.05 0.06 0.05 0.03 0.02 0.01 0.01 0.00 0.00 0.00 0.00 0.00 0.00 0.00 0.00 0.00 0.00
0.00 0.00 0.00 0.00 0.00 0.00 0.00 0.00 0.00 0.00 0.00 0.00 0.00 0.00 0.00 0.00 0.00 0.00 0.00 0.00 0.00 0.00 0.01 0.01 0.02 0.02 0.03 0.04 0.04 0.04 0.03 0.02 0.01 0.01 0.01 0.01 0.00 0.00 0.00 0.00 0.00 0.00 0.00 0.00
0.00 0.00 0.00 0.00 0.00 0.00 0.00 0.00 0.00 0.00 0.00 0.00 0.00 0.00 0.00 0.00 0.00 0.00 0.00 0.00 0.00 0.00 0.01 0.01 0.02 0.02 0.03 0.04 0.04 0.03 0.03 0.02 0.03 0.03 0.02 0.01 0.00 0.00 0.00 0.00 0.00 0.00 0.00 0.00
0.00 0.00 0.00 0.00 0.00 0.00 0.00 0.00 0.00 0.00 0.00 0.00 0.00 0.00 0.00 0.00 0.00 0.00 0.00 0.00 0.00 0.00 0.01 0.01 0.02 0.03 0.03 0.04 0.05 0.04 0.04 0.04 0.03 0.02 0.01 0.00 0.00 0.00 0.00 0.00 0.00 0.00 0.00 0.00
0.00 0.00 0.00 0.00 0.00 0.00 0.00 0.00 0.00 0.00 0.00 0.00 0.00 0.00 0.00 0.00 0.00 0.00 0.00 0.00 0.00 0.01 0.01 0.03 0.04 0.04 0.04 0.05 0.05 0.05 0.04 0.03 0.02 0.01 0.00 0.00 0.00 0.00 0.00 0.00 0.00 0.00 0.00 0.00
0.00 0.00 0.00 0.00 0.00 0.00 0.00 0.00 0.00 0.00 0.00 0.00 0.00 0.00 0.00 0.00 0.00 0.00 0.00 0.00 0.01 0.02 0.03 0.05 0.05 0.05 0.05 0.05 0.05 0.04 0.04 0.03 0.01 0.01 0.00 0.00 0.00 0.00 0.00 0.00 0.00 0.00 0.00 0.00
0.00 0.00 0.00 0.00 0.00 0.00 0.00 0.00 0.00 0.00 0.00 0.00 0.00 0.00 0.00 0.00 0.00 0.00 0.00 0.00 0.01 0.02 0.05 0.07 0.07 0.07 0.07 0.07 0.08 0.07 0.05 0.02 0.01 0.01 0.00 0.00 0.00 0.00 0.00 0.00 0.00 0.00 0.00 0.01
0.00 0.00 0.00 0.00 0.00 0.00 0.00 0.00 0.00 0.00 0.00 0.00 0.00 0.00 0.00 0.00 0.00 0.00 0.00 0.00 0.02 0.04 0.07 0.08 0.08 0.08 0.10 0.12 0.12 0.09 0.06 0.03 0.02 0.01 0.00 0.00 0.00 0.00 0.00 0.00 0.00 0.01 0.01 0.00
0.00 0.00 0.00 0.00 0.00 0.00 0.00 0.00 0.00 0.00 0.00 0.00 0.00 0.00 0.00 0.00 0.00 0.00 0.00 0.01 0.03 0.04 0.05 0.06 0.08 0.11 0.16 0.17 0.15 0.11 0.06 0.03 0.01 0.01 0.00 0.00 0.00 0.00 0.00 0.01 0.00 0.00 0.00 0.00
0.00 0.00 0.00 0.00 0.00 0.00 0.00 0.00 0.00 0.00 0.00 0.00 0.00 0.00 0.00 0.00 0.00 0.00 0.00 0.01 0.02 0.03 0.05 0.07 0.12 0.19 0.22 0.20 0.14 0.07 0.03 0.01 0.01 0.00 0.00 0.00 0.00 0.00 0.00 0.00 0.00 0.00 0.00 0.00
0.00 0.00 0.00 0.00 0.00 0.00 0.00 0.00 0.00 0.00 0.00 0.00 0.00 0.00 0.00 0.00 0.01 0.00 0.00 0.00 0.01 0.03 0.06 0.11 0.18 0.20 0.18 0.14 0.07 0.03 0.02 0.01 0.00 0.00 0.00 0.00 0.00 0.00 0.00 0.00 0.00 0.00 0.00 0.00
0.00 0.00 0.00 0.00 0.00 0.00 0.00 0.00 0.00 0.00 0.00 0.00 0.00 0.00 0.00 0.00 0.01 0.00 0.00 0.01 0.02 0.05 0.09 0.13 0.17 0.16 0.12 0.07 0.04 0.02 0.01 0.01 0.00 0.00 0.00 0.00 0.00 0.00 0.00 0.00 0.00 0.00 0.00 0.00
0.00 0.00 0.00 0.00 0.00 0.01 0.00 0.00 0.00 0.00 0.00 0.00 0.00 0.00 0.00 0.00 0.00 0.01 0.02 0.03 0.05 0.09 0.14 0.17 0.16 0.11 0.06 0.03 0.02 0.01 0.00 0.00 0.00 0.00 0.00 0.00 0.00 0.00 0.00 0.00 0.00 0.00 0.00 0.00
0.01 0.01 0.01 0.01 0.01 0.01 0.00 0.00 0.00 0.00 0.00 0.00 0.00 0.00 0.01 0.01 0.02 0.03 0.06 0.09 0.12 0.15 0.16 0.14 0.10 0.06 0.03 0.01 0.00 0.00 0.00 0.00 0.00 0.00 0.00 0.00 0.00 0.00 0.00 0.00 0.00 0.00 0.00 0.00
0.01 0.01 0.01 0.01 0.01 0.01 0.01 0.01 0.01 0.01 0.01 0.01 0.01 0.02 0.02 0.03 0.05 0.08 0.11 0.13 0.15 0.13 0.10 0.06 0.03 0.02 0.01 0.00 0.00 0.00 0.00 0.00 0.00 0.00 0.00 0.00 0.00 0.00 0.00 0.00 0.00 0.00 0.00 0.00
0.02 0.02 0.03 0.03 0.03 0.04 0.05 0.04 0.03 0.03 0.03 0.03 0.04 0.04 0.06 0.08 0.11 0.12 0.13 0.11 0.09 0.05 0.03 0.01 0.00 0.00 0.00 0.00 0.00 0.00 0.00 0.00 0.00 0.00 0.00 0.00 0.00 0.00 0.00 0.00 0.00 0.00 0.00 0.00
0.02 0.03 0.05 0.08 0.07 0.08 0.11 0.11 0.10 0.09 0.09 0.08 0.07 0.08 0.10 0.10 0.09 0.08 0.06 0.04 0.02 0.01 0.01 0.00 0.00 0.00 0.00 0.00 0.00 0.00 0.00 0.00 0.00 0.00 0.00 0.00 0.00 0.00 0.00 0.00 0.00 0.00 0.00 0.00
MSLP
1011.33 1011.71 1011.92 1011.99 1011.96 1011.89 1011.83 1011.79 1011.79 1011.80 1011.76 1011.64 1011.40 1011.04 1010.59 1010.10 1009.67 1009.38 1009.28 1009.42 1009.79 1010.37 1011.08 1011.86 1012.61 1013.29 1013.86 1014.32 1014.68 1014.99 1015.27 1015.56 1015.88 1016.22 1016.58 1016.92 1017.25 1017.53 1017.76 1017.95 1018.11 1018.25 1018.39 1018.52
1011.24 1011.56 1011.74 1011.82 1011.83 1011.84 1011.88 1011.96 1012.06 1012.12 1012.11 1011.95 1011.64 1011.17 1010.60 1010.00 1009.47 1009.12 1009.02 1009.19 1009.64 1010.32 1011.15 1012.02 1012.87 1013.61 1014.22 1014.70 1015.06 1015.36 1015.63 1015.91 1016.22 1016.57 1016.93 1017.29 1017.61 1017.90 1018.13 1018.31 1018.47 1018.61 1018.75 1018.90
1010.99 1011.26 1011.42 1011.51 1011.59 1011.69 1011.84 1012.03 1012.22 1012.34 1012.32 1012.12 1011.71 1011.11 1010.40 1009.67 1009.06 1008.66 1008.56 1008.79 1009.34 1010.14 1011.10 1012.10 1013.05 1013.87 1014.53 1015.02 1015.39 1015.66 1015.91 1016.18 1016.48 1016.82 1017.18 1017.54 1017.88 1018.17 1018.40 1018.59 1018.74 1018.88 1019.02 1019.18
1010.60 1010.82 1010.96 1011.08 1011.22 1011.42 1011.69 1011.99 1012.27 1012.43 1012.40 1012.14 1011.62 1010.90 1010.05 1009.21 1008.52 1008.09 1008.00 1008.30 1008.95 1009.89 1010.98 1012.11 1013.17 1014.07 1014.77 1015.28 1015.64 1015.90 1016.12 1016.36 1016.64 1016.98 1017.34 1017.72 1018.06 1018.36 1018.60 1018.79 1018.95 1019.09 1019.24 1019.40
1010.11 1010.27 1010.39 1010.53 1010.73 1011.03 1011.41 1011.82 1012.17 1012.38 1012.35 1012.04 1011.44 1010.61 1009.66 1008.72 1007.97 1007.52 1007.46 1007.83 1008.59 1009.64 1010.86 1012.11 1013.26 1014.22 1014.97 1015.48 1015.83 1016.06 1016.26 1016.47 1016.74 1017.07 1017.45 1017.83 1018.19 1018.51 1018.77 1018.97 1019.14 1019.28 1019.43 1019.60
1009.59 1009.67 1009.75 1009.90 1010.15 1010.53 1011.01 1011.51 1011.95 1012.20 1012.18 1011.85 1011.20 1010.30 1009.28 1008.29 1007.50 1007.05 1007.03 1007.46 1008.30 1009.45 1010.77 1012.11 1013.33 1014.35 1015.12 1015.64 1015.97 1016.18 1016.36 1016.55 1016.81 1017.14 1017.52 1017.93 1018.31 1018.66 1018.94 1019.15 1019.32 1019.47 1019.62 1019.77
1009.10 1009.09 1009.12 1009.26 1009.54 1009.97 1010.52 1011.10 1011.60 1011.91 1011.92 1011.59 1010.93 1010.01 1008.96 1007.95 1007.15 1006.71 1006.72 1007.20 1008.10 1009.32 1010.71 1012.11 1013.39 1014.44 1015.22 1015.75 1016.07 1016.27 1016.43 1016.61 1016.87 1017.20 1017.60 1018.03 1018.45 1018.82 1019.11 1019.34 1019.52 1019.66 1019.78 1019.91
1008.71 1008.60 1008.57 1008.67 1008.94 1009.40 1009.99 1010.62 1011.17 1011.52 1011.57 1011.27 1010.63 1009.72 1008.68 1007.69 1006.91 1006.49 1006.53 1007.04 1007.97 1009.23 1010.65 1012.09 1013.39 1014.46 1015.26 1015.80 1016.13 1016.33 1016.48 1016.67 1016.94 1017.28 1017.70 1018.15 1018.59 1018.98 1019.30 1019.53 1019.69 1019.81 1019.90 1020.00
1008.49 1008.28 1008.16 1008.21 1008.45 1008.90 1009.49 1010.13 1010.70 1011.08 1011.16 1010.89 1010.28 1009.41 1008.41 1007.45 1006.70 1006.31 1006.36 1006.89 1007.83 1009.09 1010.53 1011.97 1013.28 1014.38 1015.20 1015.77 1016.12 1016.34 1016.53 1016.73 1017.02 1017.38 1017.82 1018.29 1018.74 1019.14 1019.45 1019.68 1019.82 1019.90 1019.95 1019.98
1008.47 1008.17 1007.98 1007.95 1008.14 1008.53 1009.08 1009.69 1010.23 1010.60 1010.68 1010.44 1009.86 1009.04 1008.09 1007.17 1006.46 1006.09 1006.16 1006.68 1007.62 1008.86 1010.29 1011.73 1013.06 1014.17 1015.03 1015.64 1016.05 1016.32 1016.54 1016.79 1017.10 1017.48 1017.93 1018.40 1018.86 1019.25 1019.55 1019.75 1019.86 1019.89 1019.88 1019.86
1008.68 1008.32 1008.05 1007.96 1008.06 1008.37 1008.83 1009.35 1009.83 1010.14 1010.19 1009.94 1009.38 1008.59 1007.69 1006.82 1006.15 1005.81 1005.88 1006.39 1007.31 1008.53 1009.93 1011.37 1012.71 1013.86 1014.77 1015.45 1015.92 1016.26 1016.54 1016.83 1017.17 1017.56 1018.01 1018.47 1018.91 1019.28 1019.55 1019.71 1019.78 1019.77 1019.71 1019.63
1009.08 1008.70 1008.39 1008.23 1008.24 1008.44 1008.78 1009.17 1009.53 1009.74 1009.72 1009.43 1008.87 1008.11 1007.25 1006.43 1005.80 1005.49 1005.57 1006.07 1006.96 1008.15 1009.53 1010.96 1012.32 1013.51 1014.48 1015.23 1015.78 1016.20 1016.54 1016.87 1017.22 1017.62 1018.05 1018.49 1018.88 1019.21 1019.45 1019.57 1019.60 1019.55 1019.45 1019.33
1009.65 1009.27 1008.94 1008.73 1008.66 1008.74 1008.93 1009.17 1009.37 1009.45 1009.33 1008.97 1008.39 1007.65 1006.83 1006.07 1005.50 1005.22 1005.32 1005.82 1006.69 1007.86 1009.22 1010.64 1012.00 1013.22 1014.25 1015.06 1015.69 1016.17 1016.56 1016.91 1017.28 1017.66 1018.05 1018.44 1018.79 1019.07 1019.26 1019.35 1019.35 1019.28 1019.16 1019.03
1010.30 1009.96 1009.65 1009.41 1009.27 1009.23 1009.27 1009.34 1009.37 1009.29 1009.06 1008.64 1008.04 1007.31 1006.55 1005.86 1005.37 1005.15 1005.29 1005.81 1006.67 1007.81 1009.14 1010.54 1011.89 1013.12 1014.18 1015.03 1015.70 1016.22 1016.64 1017.00 1017.34 1017.69 1018.04 1018.37 1018.66 1018.88 1019.03 1019.09 1019.07 1019.00 1018.89 1018.77
1010.95 1010.68 1010.40 1010.16 1009.96 1009.82 1009.72 1009.63 1009.50 1009.29 1008.95 1008.47 1007.87 1007.20 1006.52 1005.93 1005.54 1005.42 1005.62 1006.16 1007.02 1008.14 1009.43 1010.78 1012.10 1013.31 1014.35 1015.20 1015.87 1016.40 1016.80 1017.14 1017.45 1017.74 1018.03 1018.29 1018.52 1018.69 1018.81 1018.85 1018.83 1018.77 1018.69 1018.60
1011.51 1011.33 1011.11 1010.87 1010.64 1010.42 1010.21 1009.99 1009.73 1009.40 1008.99 1008.50 1007.94 1007.35 1006.79 1006.35 1006.10 1006.10 1006.39 1006.98 1007.84 1008.93 1010.16 1011.44 1012.68 1013.82 1014.79 1015.60 1016.23 1016.71 1017.07 1017.36 1017.61 1017.83 1018.05 1018.25 1018.42 1018.55 1018.64 1018.68 1018.67 1018.64 1018.60 1018.56
1011.94 1011.83 1011.67 1011.46 1011.22 1010.95 1010.65 1010.34 1009.99 1009.60 1009.17 1008.71 1008.23 1007.78 1007.39 1007.13 1007.06 1007.21 1007.60 1008.25 1009.12 1010.16 1011.30 1012.47 1013.60 1014.61 1015.48 1016.19 1016.73 1017.13 1017.42 1017.64 1017.82 1017.98 1018.13 1018.27 1018.39 1018.50 1018.57 1018.61 1018.63 1018.63 1018.63 1018.63
1012.20 1012.15 1012.04 1011.86 1011.62 1011.32 1010.98 1010.62 1010.23 1009.83 1009.44 1009.06 1008.72 1008.44 1008.26 1008.22 1008.34 1008.66 1009.17 1009.87 1010.73 1011.71 1012.75 1013.78 1014.74 1015.60 1016.32 1016.89 1017.31 1017.61 1017.82 1017.96 1018.07 1018.18 1018.27 1018.37 1018.47 1018.56 1018.63 1018.69 1018.72 1018.75 1018.77 1018.80
1012.31 1012.31 1012.23 1012.08 1011.84 1011.54 1011.18 1010.81 1010.43 1010.07 1009.75 1009.50 1009.32 1009.25 1009.30 1009.48 1009.81 1010.29 1010.91 1011.65 1012.49 1013.39 1014.30 1015.16 1015.95 1016.62 1017.17 1017.59 1017.89 1018.08 1018.20 1018.28 1018.35 1018.41 1018.48 1018.57 1018.65 1018.74 1018.82 1018.89 1018.94 1018.98 1019.02 1019.05
1012.34 1012.36 1012.30 1012.16 1011.94 1011.64 1011.29 1010.93 1010.59 1010.30 1010.09 1009.98 1009.99 1010.12 1010.39 1010.78 1011.29 1011.91 1012.62 1013.38 1014.18 1014.98 1015.74 1016.43 1017.04 1017.53 1017.91 1018.18 1018.37 1018.47 1018.54 1018.58 1018.62 1018.67 1018.74 1018.83 1018.93 1019.03 1019.12 1019.20 1019.26 1019.30 1019.33 1019.34
1012.39 1012.40 1012.35 1012.21 1011.99 1011.71 1011.38 1011.05 1010.77 1010.56 1010.46 1010.50 1010.67 1010.99 1011.43 1012.00 1012.65 1013.37 1014.12 1014.88 1015.61 1016.30 1016.92 1017.45 1017.88 1018.21 1018.45 1018.61 1018.71 1018.76 1018.80 1018.83 1018.88 1018.95 1019.05 1019.16 1019.27 1019.39 1019.50 1019.59 1019.65 1019.68 1019.69 1019.67
1012.53 1012.53 1012.47 1012.33 1012.11 1011.84 1011.54 1011.26 1011.03 1010.90 1010.90 1011.05 1011.36 1011.81 1012.39 1013.06 1013.80 1014.56 1015.31 1016.03 1016.69 1017.26 1017.74 1018.13 1018.42 1018.63 1018.77 1018.86 1018.91 1018.95 1019.00 1019.05 1019.14 1019.24 1019.37 1019.52 1019.66 1019.80 1019.92 1020.02 1020.07 1020.09 1020.07 1020.01
1012.81 1012.80 1012.73 1012.59 1012.39 1012.13 1011.86 1011.62 1011.44 1011.38 1011.45 1011.68 1012.07 1012.59 1013.23 1013.95 1014.71 1015.46 1016.17 1016.82 1017.38 1017.85 1018.22 1018.49 1018.69 1018.83 1018.91 1018.98 1019.03 1019.09 1019.17 1019.27 1019.40 1019.55 1019.72 1019.90 1020.07 1020.22 1020.35 1020.44 1020.49 1020.49 1020.44 1020.34
1013.26 1013.24 1013.17 1013.04 1012.85 1012.62 1012.38 1012.18 1012.04 1012.02 1012.14 1012.41 1012.82 1013.36 1014.00 1014.70 1015.41 1016.10 1016.74 1017.30 1017.77 1018.14 1018.43 1018.63 1018.78 1018.88 1018.97 1019.05 1019.13 1019.24 1019.36 1019.52 1019.69 1019.88 1020.08 1020.27 1020.45 1020.61 1020.74 1020.82 1020.86 1020.84 1020.77 1020.65
1013.80 1013.80 1013.74 1013.64 1013.48 1013.29 1013.09 1012.92 1012.83 1012.84 1012.97 1013.24 1013.63 1014.13 1014.72 1015.34 1015.98 1016.58 1017.12 1017.58 1017.96 1018.27 1018.50 1018.67 1018.81 1018.93 1019.04 1019.16 1019.30 1019.46 1019.63 1019.83 1020.03 1020.23 1020.43 1020.62 1020.80 1020.94 1021.05 1021.12 1021.15 1021.13 1021.06 1020.92
1014.36 1014.39 1014.37 1014.31 1014.20 1014.06 1013.92 1013.80 1013.74 1013.76 1013.89 1014.13 1014.48 1014.91 1015.41 1015.94 1016.46 1016.95 1017.39 1017.77 1018.09 1018.35 1018.56 1018.74 1018.90 1019.06 1019.23 1019.41 1019.60 1019.80 1020.01 1020.21 1020.41 1020.61 1020.78 1020.94 1021.08 1021.19 1021.28 1021.34 1021.36 1021.34 1021.28 1021.15
Thickness
5735 5732 5733 5742 5746 5749 5747 5745 5749 5759 5764 5758 5760 5764 5770 5775 5777 5781 5783 5783 5780 5776 5771 5764 5757 5752 5747 5742 5736 5731 5727 5720 5716 5711 5707 5700 5695 5690 5685 5680 5675 5671 5667 5664
5723 5726 5742 5746 5742 5736 5734 5731 5739 5751 5755 5749 5751 5755 5765 5769 5771 5776 5776 5776 5774 5768 5758 5751 5747 5743 5739 5733 5728 5723 5718 5713 5709 5703 5698 5692 5685 5679 5674 5668 5663 5659 5655 5651
5722 5737 5743 5733 5726 5722 5727 5729 5736 5740 5748 5747 5741 5744 5756 5763 5766 5768 5771 5773 5773 5765 5754 5744 5739 5734 5730 5725 5721 5716 5709 5704 5699 5693 5687 5681 5675 5670 5664 5658 5653 5648 5643 5639
5725 5737 5730 5723 5723 5724 5721 5736 5734 5732 5729 5735 5738 5729 5757 5757 5756 5760 5765 5767 5767 5761 5751 5741 5733 5726 5721 5716 5711 5706 5700 5695 5689 5684 5680 5675 5670 5664 5655 5649 5643 5637 5631 5627
5724 5731 5724 5718 5725 5726 5726 5736 5731 5728 5725 5724 5729 5720 5745 5752 5747 5759 5765 5764 5761 5754 5744 5733 5726 5719 5712 5706 5701 5695 5690 5684 5679 5675 5669 5664 5659 5652 5645 5638 5630 5626 5621 5615
5730 5736 5732 5729 5734 5732 5730 5724 5722 5722 5721 5707 5724 5722 5732 5751 5748 5760 5767 5761 5753 5745 5734 5723 5715 5708 5701 5696 5690 5685 5679 5673 5668 5663 5658 5653 5646 5640 5634 5627 5621 5617 5611 5604
5713 5722 5728 5731 5721 5721 5719 5706 5698 5701 5704 5712 5736 5723 5733 5754 5757 5760 5760 5756 5747 5736 5724 5713 5704 5697 5691 5685 5679 5674 5668 5661 5656 5651 5646 5641 5634 5629 5623 5617 5610 5605 5601 5594
5705 5707 5723 5725 5719 5715 5714 5709 5694 5691 5704 5721 5730 5717 5738 5751 5752 5753 5754 5751 5741 5728 5718 5707 5699 5691 5684 5676 5669 5664 5658 5651 5645 5640 5634 5628 5623 5620 5613 5603 5598 5592 5586 5579
5710 5710 5730 5730 5729 5723 5712 5711 5719 5704 5700 5696 5712 5728 5738 5743 5742 5744 5744 5741 5732 5720 5710 5700 5691 5684 5676 5667 5660 5654 5648 5641 5636 5630 5623 5616 5611 5605 5598 5590 5584 5579 5570 5564
5708 5700 5716 5723 5722 5720 5722 5721 5710 5695 5680 5681 5700 5713 5726 5734 5738 5741 5738 5734 5726 5713 5701 5691 5683 5675 5667 5659 5651 5643 5638 5632 5625 5619 5614 5607 5600 5592 5585 5579 5571 5564 5556 5549
5696 5690 5701 5707 5705 5711 5707 5705 5703 5703 5703 5690 5690 5711 5741 5736 5736 5735 5736 5734 5724 5709 5695 5684 5676 5667 5657 5648 5640 5633 5628 5622 5616 5610 5602 5595 5588 5580 5573 5566 5559 5551 5544 5537
5682 5685 5690 5702 5715 5713 5713 5710 5705 5689 5691 5697 5691 5706 5739 5732 5731 5729 5729 5727 5719 5703 5690 5678 5668 5657 5647 5638 5631 5625 5619 5613 5605 5598 5590 5583 5575 5568 5561 5555 5547 5540 5533 5527
5667 5668 5668 5680 5689 5696 5696 5700 5701 5699 5694 5690 5687 5704 5725 5722 5721 5720 5718 5717 5707 5692 5679 5668 5657 5646 5637 5628 5620 5614 5608 5601 5593 5586 5579 5571 5563 5556 5549 5543 5536 5529 5523 5518
5654 5657 5661 5667 5678 5676 5677 5683 5687 5685 5684 5687 5693 5701 5713 5711 5709 5709 5708 5704 5694 5680 5668 5657 5646 5636 5627 5617 5609 5602 5594 5587 5580 5573 5566 5559 5551 5544 5538 5532 5525 5519 5514 5509
5643 5645 5651 5657 5663 5665 5665 5668 5672 5672 5676 5674 5684 5689 5697 5698 5697 5698 5697 5692 5681 5668 5656 5646 5635 5624 5614 5603 5595 5586 5578 5572 5566 5559 5553 5546 5539 5533 5527 5521 5515 5510 5505 5500
5629 5629 5634 5636 5647 5650 5651 5659 5662 5664 5667 5668 5671 5675 5687 5685 5685 5683 5681 5677 5667 5656 5644 5632 5620 5608 5597 5586 5577 5569 5563 5558 5552 5546 5541 5534 5528 5522 5517 5511 5506 5500 5494 5489
5618 5615 5617 5624 5636 5631 5634 5649 5652 5655 5660 5660 5656 5660 5662 5662 5662 5662 5662 5660 5653 5642 5629 5615 5602 5590 5578 5568 5560 5554 5549 5544 5539 5534 5529 5524 5517 5512 5506 5502 5496 5489 5482 5475
5598 5601 5607 5613 5612 5603 5631 5632 5634 5635 5640 5638 5636 5636 5637 5638 5640 5642 5642 5641 5635 5623 5609 5594 5581 5569 5559 5551 5545 5541 5537 5533 5528 5523 5518 5513 5507 5501 5496 5489 5481 5473 5467 5461
5590 5590 5596 5600 5602 5611 5620 5613 5612 5613 5620 5617 5616 5618 5621 5623 5624 5618 5615 5614 5608 5597 5584 5571 5560 5551 5543 5538 5534 5531 5527 5523 5518 5513 5507 5501 5495 5489 5482 5473 5466 5459 5453 5447
5580 5583 5586 5589 5583 5591 5599 5598 5602 5601 5603 5601 5601 5602 5605 5607 5608 5595 5587 5582 5574 5566 5557 5549 5541 5535 5529 5525 5523 5520 5517 5512 5506 5500 5494 5487 5480 5474 5466 5458 5451 5446 5440 5435
5575 5574 5577 5578 5576 5588 5584 5587 5592 5586 5592 5587 5587 5588 5589 5586 5580 5570 5561 5554 5548 5541 5536 5531 5526 5521 5517 5515 5513 5510 5505 5499 5492 5486 5480 5473 5466 5458 5451 5444 5438 5433 5429 5423
5566 5568 5570 5570 5568 5569 5570 5574 5570 5573 5575 5575 5574 5574 5571 5563 5555 5546 5539 5532 5527 5523 5518 5515 5512 5509 5507 5504 5502 5498 5491 5485 5480 5474 5468 5460 5453 5447 5440 5433 5427 5422 5416 5413
5556 5558 5561 5561 5564 5563 5561 5556 5557 5559 5561 5563 5562 5560 5554 5545 5536 5527 5520 5514 5510 5507 5505 5503 5502 5500 5497 5494 5492 5488 5481 5476 5470 5464 5456 5448 5441 5434 5428 5423 5418 5412 5406 5401
5549 5548 5548 5549 5553 5548 5544 5544 5545 5548 5550 5551 5549 5544 5538 5528 5519 5512 5507 5502 5499 5497 5496 5496 5495 5493 5489 5485 5481 5477 5472 5466 5459 5452 5445 5438 5432 5425 5417 5412 5407 5400 5394 5389
5538 5538 5537 5536 5535 5532 5528 5526 5528 5531 5533 5532 5530 5525 5520 5514 5507 5502 5498 5496 5494 5493 5492 5490 5490 5487 5482 5478 5473 5467 5461 5455 5449 5442 5435 5429 5423 5416 5408 5402 5394 5389 5382 5377
5527 5525 5524 5519 5515 5515 5510 5511 5514 5516 5516 5515 5513 5510 5507 5504 5500 5498 5495 5493 5491 5490 5488 5487 5485 5482 5476 5470 5464 5457 5452 5447 5441 5435 5428 5423 5416 5407 5401 5395 5388 5378 5374 5371